CW9119 Weather Reports


Display with metric or nautical units.
time (UTC)temp
F
wind
direction
speed
MPH
gust
MPH
rain 1hr
in
rain 24hr
in
rain mn
in
humidity
%
barometer
mb
20260508172111 49 18 1.0 6.0 0.00 0.00 0.00 84 1016.4
20260508171111 49 274 1.0 6.0 0.00 0.00 0.00 84 1016.3
20260508165111 49 274 1.0 6.0 0.00 0.01 0.00 86 1016.3
20260508164111 48 273 0.0 6.0 0.00 0.01 0.00 86 1016.4
20260508163111 48 271 0.0 2.0 0.00 0.01 0.00 86 1016.4
20260508153110 49 269 0.0 0.0 0.00 0.01 0.00 87 1016.4
20260508151110 50 269 0.0 0.0 0.00 0.01 0.00 87 1016.5
20260508145110 50 269 1.0 5.0 0.00 0.01 0.00 87 1016.7
20260508144110 51 269 2.0 6.0 0.00 0.01 0.00 87 1016.7
20260508142110 50 269 1.0 5.0 0.00 0.01 0.00 87 1016.4
20260508135110 51 269 0.0 0.0 0.00 0.01 0.00 87 1016.5
20260508134110 51 269 0.0 0.0 0.00 0.01 0.00 87 1016.4
20260508132110 50 271 0.0 1.0 0.00 0.01 0.00 88 1016.3
20260508131110 50 271 1.0 6.0 0.00 0.01 0.00 87 1016.4
20260508124109 50 266 0.0 0.0 0.00 0.01 0.00 87 1016.3
20260508123109 49 266 0.0 0.0 0.00 0.01 0.00 88 1016.2
20260508121109 49 266 0.0 2.0 0.00 0.01 0.00 88 1016.2
20260508120109 49 266 0.0 4.0 0.00 0.01 0.00 89 1016.2
20260508114109 49 266 0.0 0.0 0.00 0.01 0.00 89 1016.3
20260508113109 49 266 0.0 2.0 0.00 0.01 0.00 89 1016.2
20260508111114 48 266 0.0 0.0 0.00 0.01 0.00 89 1016.1
20260508101113 49 266 0.0 2.0 0.00 0.08 0.00 89 1016.2
20260508095113 48 266 0.0 0.0 0.00 0.08 0.00 89 1016.0
20260508094113 48 266 0.0 2.0 0.00 0.08 0.00 89 1016.0
20260508092113 47 266 1.0 4.0 0.00 0.08 0.00 91 1015.8
20260508091113 47 265 0.0 0.0 0.00 0.08 0.00 92 1015.8
20260508090113 47 265 0.0 1.0 0.00 0.08 0.00 93 1015.7
20260508085113 46 265 0.0 0.0 0.00 0.08 0.00 92 1015.7
20260508083113 46 265 0.0 2.0 0.00 0.08 0.00 92 1015.5
20260508081112 46 265 0.0 0.0 0.00 0.08 0.00 93 1015.4
20260508080112 46 265 0.0 0.0 0.00 0.08 0.00 93 1015.6
20260508075112 46 265 0.0 2.0 0.00 0.08 0.00 93 1015.3
20260508073112 46 265 0.0 2.0 0.00 0.08 0.00 93 1015.3
20260508070112 45 265 0.0 4.0 0.00 0.08 0.00 93 1015.1
20260508065112 45 265 0.0 0.0 0.00 0.23 0.00 94 1014.9
20260508064112 45 265 0.0 2.0 0.00 0.23 0.00 94 1014.7
20260508061112 45 265 0.0 0.0 0.00 0.23 0.00 94 1014.6
20260508054112 45 265 0.0 0.0 0.00 0.23 0.00 94 1014.4
20260508050111 44 265 0.0 0.0 0.00 0.23 0.00 94 1014.3
20260508044111 44 265 0.0 0.0 0.00 0.24 0.00 94 1014.2
20260508042111 44 265 0.0 0.0 0.00 0.24 0.00 94 1014.2
20260508041111 44 265 0.0 0.0 0.00 0.24 0.00 94 1014.0
20260508040111 44 265 0.0 0.0 0.00 0.24 0.00 94 1014.1
20260508035111 44 265 0.0 0.0 0.00 0.32 0.00 94 1014.1
20260508034111 44 265 0.0 0.0 0.00 0.32 0.00 94 1014.0
20260508031111 44 265 0.0 0.0 0.00 0.32 0.00 94 1014.1
20260508023110 44 265 0.0 4.0 0.00 0.38 0.00 94 1013.8
20260508022110 44 265 0.0 0.0 0.00 0.38 0.00 94 1013.8
20260508021110 44 265 0.0 0.0 0.00 0.38 0.00 94 1013.8
20260508015111 44 265 0.0 0.0 0.00 0.41 0.00 94 1014.0
20260508013112 44 265 0.0 0.0 0.00 0.41 0.00 94 1013.9
20260508004112 44 265 0.0 0.0 0.00 0.41 0.00 94 1013.6
20260508001112 44 265 0.0 1.0 0.00 0.41 0.00 94 1013.4
20260507235112 44 265 0.0 0.0 0.00 0.41 0.00 94 1013.4
20260507234112 44 265 0.0 0.0 0.00 0.41 0.00 94 1013.3
20260507233112 44 265 0.0 0.0 0.00 0.41 0.00 94 1013.3
20260507232112 44 265 0.0 0.0 0.00 0.41 0.00 94 1013.4
20260507225111 45 265 0.0 0.0 0.00 0.47 0.00 94 1013.4
20260507223111 45 265 0.0 0.0 0.00 0.47 0.00 94 1013.4
20260507221111 44 265 0.0 0.0 0.00 0.47 0.00 94 1013.3
20260507220111 44 265 0.0 0.0 0.00 0.47 0.00 94 1013.2
20260507212111 44 265 0.0 0.0 0.00 0.59 0.59 93 1013.0
20260507205111 44 265 0.0 0.0 0.00 0.61 0.59 93 1012.7
20260507204110 44 265 0.0 0.0 0.00 0.61 0.59 93 1012.6
20260507203110 45 265 0.0 0.0 0.00 0.61 0.59 93 1012.5
20260507201110 45 265 0.0 0.0 0.00 0.61 0.59 93 1012.3
20260507200110 46 265 0.0 0.0 0.00 0.61 0.59 92 1012.3
20260507194110 46 265 0.0 0.0 0.00 0.67 0.59 93 1012.0
20260507182110 49 265 0.0 1.0 0.01 0.67 0.59 92 1011.1
20260507181110 49 265 0.0 2.0 0.01 0.67 0.59 92 1011.0
20260507180109 49 265 0.0 0.0 0.01 0.67 0.59 91 1011.1
20260507174109 49 265 0.0 0.0 0.01 0.67 0.59 91 1011.1